Please be sure to check the latest weather conditions by clicking the link and viewing our local weather information!

Check Weather

Welcome to Lakeway Airpark (3R9)


We’re a community airpark nestled within the town of Lakeway, Texas (17 miles northwest of downtown Austin).

Lakeway Airpark, Inc. was formed by Lakeway residents and interested parties to own and manage Lakeway Airpark (3R9).

The Airpark is a privately owned not for profit public use airport for residents and guests of Lakeway. No public funds are used and the airport is supported by fees and fuel sales at the airport.

Lakeway Airpark is an unmanned facility open for use from Sunrise to Sunset seven days a week. Takeoffs and landings are not permitted at night, between Sunset and Sunrise, by City Ordinance.

Quick Weather Info

Available data for KAUS from the past 2 hours

KAUS 251953Z 16014G21KT 10SM BKN030 BKN037 24/17 A3003 RMK AO2 SLP161 T02440167
KAUS 251942Z 16013KT 10SM BKN030 BKN037 24/17 A3003 RMK AO2 T02440167
KAUS 251853Z 16015G20KT 10SM BKN029 OVC035 24/17 A3004 RMK AO2 SLP167 T02440167